Weather Roundup
Issued by NWS Corpus Christi, TX

Home | Current Version | Previous Version | Text Only | Print | Product List | Glossary On
Versions: 1 2 3 4 5 6 7 8 9 10 11 12 13 14 15 16 17 18 19 20 21 22 23 24 25 26 27 28 29 30 31 32 33 34 35 36 37 38 39 40 41 42 43 44 45 46 47 48 49 50
000
ASUS44 KCRP 280510
HRRCRP

SOUTH TEXAS REGIONAL WEATHER ROUNDUP
NATIONAL WEATHER SERVICE CORPUS CHRISTI TX
1100 PM CST MON FEB 27 2017


TXZ229>244-280600-
...CORPUS CHRISTI AREA OBSERVATIONS...

CITY           SKY/WX    TMP DP  RH WIND       PRES   REMARKS
CORPUS CHRISTI MOCLDY    73  72  96 SE20      29.93S FOG
NAS CORPUS CHR CLOUDY    73  73 100 S14       29.94S FOG
ROCKPORT       PTCLDY    74  71  91 S13G23    29.94S FOG
KINGSVILLE NAS CLOUDY    73  73 100 SE13      29.93S FOG
ALICE          MOCLDY    70  69  97 SE9       29.93R FOG
ORANGE GROVE   MOCLDY    72  71  97 S13       29.94S FOG
FALFURRIAS     CLOUDY    73  70  90 SE7       29.92F
$$

...VICTORIA AREA OBSERVATIONS...

CITY           SKY/WX    TMP DP  RH WIND       PRES   REMARKS
VICTORIA       CLOUDY    72  70  93 SE10      29.96S FOG
BEEVILLE       CLOUDY    71  71 100 SE8       29.94S FOG
PLEASANTON     PTCLDY    69  66  92 SE7       29.93S
SAN ANTONIO    MOCLDY    69  65  86 SE9       29.95R
$$

...LAREDO AREA OBSERVATIONS...

CITY           SKY/WX    TMP DP  RH WIND       PRES   REMARKS
LAREDO         PTCLDY    75  66  73 SE12      29.89R
COTULLA        PTCLDY    73  65  75 SE10      29.90S
DEL RIO        CLEAR     67  58  72 E7        29.88S
MCALLEN        CLOUDY    79  71  76 SE14G25   29.92F
HEBBRONVILLE   CLEAR     70  67  90 SE7       29.93S
$$

...OTHER TEXAS OBSERVATIONS...

CITY           SKY/WX    TMP DP  RH WIND       PRES   REMARKS
BROWNSVILLE    PTCLDY    75  72  90 SE14      29.95S
HOUSTON        CLOUDY    74  70  87 S10       29.98R
COL. STATION   CLOUDY    72  68  87 S9        29.95S
AUSTIN         MOCLDY    70  67  90 S9        29.94R
WACO           PTCLDY    66  64  93 S8        29.91S
FORT WORTH     MOCLDY    69  63  81 S7        29.87F
WICHITA FALLS  PTCLDY    64  56  75 S14       29.83R
LUBBOCK        CLOUDY    64  19  17 SW18G28   29.87S
EL PASO        CLOUDY    65  29  25 W22G32    29.95R
$$

...MARINE OBSERVATIONS...

STATION/POSITION TIME  SKY/WX   TEMP    WIND        PRES    VSBY  WAVE   SWELL
                                AIR SEA DIR/SP/G                  HT/PER HT/PER
                 (UTC)          (F)     (DEG/KT/KT) (MB)    (MI)  (FT/S) (FT/S)
PORT ARANSAS     0500            71 69  140/ 13/ 14 1014.0R
BUOY 90 E PORT A 0350            72 70  130/ 10/ 12 1015.2          4/ 7   3/ 7
BUOY 45 SE BAFFI 0350            75     150/ 14/ 17 1013.6          5/ 7
BUOY 200 E PT IS 0350            75 74  150/ 14/ 17 1016.7          6/ 7   5/ 7
BUOY 15 E GALVES 0350            69 67  150/ 17/ 19 1015.6          3/ 7   2/ 7
$$



USA.gov is the U.S. government's official web portal to all federal, state and local government web resources and services.